This demonstration page uses our WeatherBlox Daily Observations layout. Learn more.

Hourly Observations for June 29, 2020

Temp ( °F °C ) Dew Point ( °F °C ) Humidity (%) Winds ( mph kmh ) Pressure ( in mb ) Visibility ( mi km ) Precip ( " mm )
12:15 am 00:15 Clear 78 25.5 69 20.6 74 74 SSE 9 15 29.47 998 10 16.0934 0 0
12:35 am 00:35 Clear 78 25.5 69 20.8 75 75 SSE 10 17 29.47 998 10 16.0934 0 0
12:55 am 00:55 Clear 78 25.3 70 21 77 77 SSE 12 19 29.48 998 10 16.0934 0 0
1:15 am 01:15 Clear 77 25 70 21 79 79 SSE 10 17 29.47 998 10 16.0934 0 0
1:35 am 01:35 Clear 77 25 70 21.3 80 80 SSE 12 19 29.48 998 10 16.0934 0 0
1:55 am 01:55 Clear 77 24.8 71 21.5 82 82 SSE 14 22 29.47 998 10 16.0934 0 0
2:15 am 02:15 Clear 76 24.7 71 21.5 82 82 SSE 14 22 29.47 998 10 16.0934 0 0
2:35 am 02:35 Clear 76 24.3 71 21.5 84 84 SSE 12 19 29.46 998 10 16.0934 0 0
2:55 am 02:55 Clear 75 24.1 71 21.5 85 85 SSE 12 19 29.47 998 10 16.0934 0 0
3:15 am 03:15 Clear 75 24 71 21.5 86 86 SSE 14 22 29.47 998 10 16.0934 0 0
3:35 am 03:35 Clear 74 23.6 71 21.5 88 88 SSE 14 22 29.46 998 10 16.0934 0 0
3:55 am 03:55 Clear 74 23.5 71 21.6 89 89 SSE 14 22 29.47 998 10 16.0934 0 0
4:15 am 04:15 Mostly Cloudy 74 23.5 71 21.7 90 90 SSE 12 19 29.48 998 10 16.0934 0 0
4:35 am 04:35 Cloudy 75 23.7 71 21.8 89 89 SSE 13 20 29.48 998 10 16.0934 0 0
4:55 am 04:55 Cloudy 75 23.7 71 21.8 89 89 SSE 14 22 29.48 998 10 16.0934 0 0
5:15 am 05:15 Cloudy 74 23.6 71 21.8 90 90 SSE 14 22 29.48 998 10 16.0934 0 0
5:35 am 05:35 Cloudy 74 23.6 71 21.7 89 89 SSE 14 22 29.49 999 10 16.0934 0 0
5:55 am 05:55 Cloudy 75 23.7 71 21.7 89 89 SSE 15 24 29.49 999 10 16.0934 0 0
6:15 am 06:15 Cloudy 75 23.7 71 21.6 88 88 SSE 14 22 29.49 999 10 16.0934 0 0
6:35 am 06:35 Cloudy 74 23.6 71 21.5 88 88 SSE 14 22 29.49 999 7 11.26538 0 0
6:55 am 06:55 Cloudy 74 23.5 70 21.3 88 88 SSE 16 26 29.49 999 7 11.26538 0 0
7:15 am 07:15 Cloudy 74 23.5 70 21.3 88 88 SSE 16 26 29.5 999 10 16.0934 0 0
7:35 am 07:35 Cloudy 74 23.6 70 21.1 86 86 SSE 13 20 29.5 999 10 16.0934 0 0
7:55 am 07:55 Cloudy 75 23.7 70 20.9 84 84 SSE 16 26 29.5 999 7 11.26538 0 0
8:15 am 08:15 Cloudy 75 23.9 69 20.8 83 83 S 20 31 29.51 999 10 16.0934 0 0
8:35 am 08:35 Cloudy 75 24.1 69 20.7 81 81 SSE 16 26 29.51 999 10 16.0934 0 0
8:55 am 08:55 Cloudy 76 24.3 69 20.6 80 80 S 14 22 29.51 999 10 16.0934 0 0
9:15 am 09:15 Cloudy 76 24.4 69 20.5 79 79 SSE 16 26 29.51 999 10 16.0934 0 0
9:35 am 09:35 Cloudy 77 25.1 69 20.4 75 75 SSE 18 30 29.51 999 10 16.0934 0 0
9:55 am 09:55 Cloudy 78 25.4 69 20.5 74 74 S 16 26 29.51 999 10 16.0934 0 0
10:15 am 10:15 Cloudy 78 25.5 69 20.5 74 74 SSE 17 28 29.5 999 10 16.0934 0 0
10:35 am 10:35 Cloudy 79 26 69 20.5 72 72 SSE 16 26 29.5 999 10 16.0934 0 0
10:55 am 10:55 Cloudy 79 26.1 69 20.5 71 71 SSE 15 24 29.5 999 10 16.0934 0 0
11:15 am 11:15 Cloudy 81 27.2 69 20.5 67 67 SSE 15 24 29.5 999 10 16.0934 0 0
11:35 am 11:35 Mostly Cloudy 81 27.2 69 20.6 67 67 SSE 15 24 29.49 999 10 16.0934 0 0
11:55 am 11:55 Partly Cloudy 83 28.1 69 20.7 64 64 SSE 15 24 29.48 998 10 16.0934 0 0
12:15 pm 12:15 Partly Cloudy 84 28.9 69 20.7 61 61 SE 18 30 29.48 998 10 16.0934 0 0
12:35 pm 12:35 Sunny 85 29.5 69 20.8 60 60 SSE 17 28 29.46 998 10 16.0934 0 0
12:55 pm 12:55 Sunny 86 30.1 70 21.1 59 59 SSE 15 24 29.46 998 10 16.0934 0 0
1:15 pm 13:15 Partly Cloudy 87 30.5 70 21.1 57 57 SE 21 33 29.45 997 10 16.0934 0 0
1:35 pm 13:35 Partly Cloudy 88 31 70 21.1 56 56 SSE 16 26 29.45 997 10 16.0934 0 0
1:55 pm 13:55 Sunny 89 31.4 70 21.2 55 55 SSE 21 33 29.44 997 10 16.0934 0 0
2:15 pm 14:15 Sunny 90 32 71 21.5 54 54 SSE 18 30 29.43 997 10 16.0934 0 0
2:35 pm 14:35 Sunny 90 32.3 70 21.3 52 52 SSE 20 31 29.43 997 10 16.0934 0 0
2:55 pm 14:55 Sunny 90 32.4 71 21.4 52 52 SE 22 35 29.43 997 10 16.0934 0 0
3:15 pm 15:15 Sunny 91 32.7 70 21.2 51 51 SSE 21 33 29.43 997 10 16.0934 0 0
3:35 pm 15:35 Sunny 91 32.9 70 21.2 50 50 SSE 21 33 29.43 997 10 16.0934 0 0
3:55 pm 15:55 Sunny 92 33.1 69 20.8 48 48 SSE 17 28 29.43 996 10 16.0934 0 0
4:15 pm 16:15 Sunny 92 33.5 71 21.5 49 49 SSE 18 30 29.42 996 10 16.0934 0 0
4:35 pm 16:35 Sunny 92 33.4 70 21.3 49 49 SSE 21 33 29.42 996 10 16.0934 0 0
4:55 pm 16:55 Sunny 92 33.5 69 20.6 47 47 SSE 20 31 29.43 997 10 16.0934 0 0
5:15 pm 17:15 Sunny 92 33.5 71 21.5 49 49 SSE 18 30 29.42 996 10 16.0934 0 0
5:35 pm 17:35 Sunny 92 33.5 71 21.5 49 49 SSE 16 26 29.42 996 10 16.0934 0 0
5:55 pm 17:55 Sunny 92 33.4 71 21.6 50 50 SSE 16 26 29.41 996 10 16.0934 0 0
6:15 pm 18:15 Sunny 92 33.3 71 21.8 51 51 SSE 16 26 29.41 996 10 16.0934 0 0
6:35 pm 18:35 Sunny 92 33.1 71 21.8 51 51 SSE 18 30 29.42 996 10 16.0934 0 0
6:55 pm 18:55 Sunny 91 33 72 22.2 53 53 SSE 14 22 29.42 996 10 16.0934 0 0
7:15 pm 19:15 Sunny 91 32.7 71 21.6 52 52 SSE 15 24 29.41 996 10 16.0934 0 0
7:35 pm 19:35 Sunny 90 32.2 71 21.9 55 55 SE 15 24 29.41 996 10 16.0934 0 0
7:55 pm 19:55 Sunny 89 31.7 71 21.9 56 56 SE 16 26 29.42 996 10 16.0934 0 0
8:15 pm 20:15 Sunny 88 31.1 71 21.9 58 58 SE 14 22 29.42 996 10 16.0934 0 0
8:35 pm 20:35 Sunny 87 30.6 71 21.8 59 59 SE 13 20 29.44 997 10 16.0934 0 0
8:55 pm 20:55 Sunny 86 30 71 21.9 62 62 SE 13 20 29.44 997 10 16.0934 0 0
9:15 pm 21:15 Clear 84 29.1 71 21.8 65 65 SE 12 19 29.45 997 10 16.0934 0 0
9:35 pm 21:35 Clear 83 28.5 71 21.6 66 66 SE 13 20 29.45 997 10 16.0934 0 0
9:55 pm 21:55 Clear 82 28 71 21.5 68 68 SE 13 20 29.46 998 10 16.0934 0 0
10:15 pm 22:15 Clear 82 27.8 71 21.6 69 69 SE 13 20 29.48 998 10 16.0934 0 0
10:35 pm 22:35 Clear 82 27.7 72 22 71 71 SE 14 22 29.48 998 10 16.0934 0 0
10:55 pm 22:55 Clear 81 27.3 72 22 73 73 SSE 15 24 29.48 998 10 16.0934 0 0
11:15 pm 23:15 Clear 81 27.3 72 22 73 73 SSE 14 22 29.48 998 10 16.0934 0 0
11:35 pm 23:35 Clear 81 27.1 72 22 74 74 SSE 15 24 29.48 998 10 16.0934 0 0
11:55 pm 23:55 Clear 80 26.7 72 22 75 75 SSE 13 20 29.48 998 10 16.0934 0 0

Powered by AerisWeather